CAPE
1 1 1 1 0 0 0 0 0 0 0 0 0 0 0 0 0 0 0 0 0 1461 1127 559 556 230 199 59 31 133 124 78 37 28 12 76 176 109 39 46 34 15 6 0 17
1 0 1 0 0 0 0 0 0 0 0 0 0 0 0 0 0 0 0 0 63 1443 739 434 279 205 105 168 155 35 0 101 36 34 14 63 250 125 77 11 19 24 11 3 7
1 1 1 0 0 0 0 0 0 0 0 0 0 0 0 0 0 0 0 0 909 965 642 338 254 218 338 125 302 8 0 70 34 98 168 81 181 184 131 46 35 25 4 0 3
1 1 1 0 1 0 0 0 0 0 0 0 0 0 0 0 0 0 0 15 1226 473 267 341 231 419 534 488 253 128 91 43 75 177 108 125 225 169 111 107 0 0 0 0 4
1 1 1 0 0 0 0 0 0 0 0 0 0 0 0 0 0 289 489 1156 879 543 254 197 446 544 643 511 226 167 102 77 59 62 144 190 197 158 56 0 4 18 1 4 132
1 1 0 0 0 0 0 0 0 0 0 0 0 0 0 0 0 874 868 892 675 588 321 232 700 625 769 541 408 263 331 273 56 63 165 158 155 139 33 29 38 19 3 29 182
1 1 0 0 0 0 0 0 0 0 0 0 0 0 0 0 0 817 964 445 621 726 510 367 454 656 825 676 427 215 178 53 36 80 138 133 62 93 68 90 22 35 3 21 126
2 1 0 0 0 0 0 0 0 0 0 0 0 0 0 0 214 239 564 277 712 769 651 819 807 792 848 955 231 60 31 0 32 48 177 50 0 89 96 76 36 21 3 46 179
1 1 0 0 0 0 0 0 0 0 0 0 0 0 0 7 13 162 211 13 176 438 615 686 543 402 677 216 60 11 0 0 0 133 99 41 23 85 91 69 63 47 82 114 137
1 0 0 0 0 0 0 0 0 0 0 0 0 0 0 0 0 36 81 153 63 225 151 151 153 163 69 8 0 0 0 0 0 11 97 153 132 69 46 41 61 109 116 96 111
0 0 0 0 0 0 0 0 0 0 0 0 0 0 0 0 0 0 0 0 0 0 0 16 0 0 0 0 0 0 0 0 0 15 48 143 270 137 63 20 18 67 121 111 86
0 0 0 0 0 0 0 0 0 0 0 0 0 0 0 0 0 0 0 0 0 0 0 0 0 0 0 0 0 0 0 0 0 93 81 155 120 270 165 69 27 22 56 96 97
0 0 0 0 0 0 0 0 0 0 0 0 0 0 0 0 0 0 0 0 0 0 0 0 0 0 0 0 0 0 0 0 0 33 212 113 15 246 237 167 71 4 39 58 85
0 0 0 0 0 0 0 0 0 0 0 0 0 0 0 0 0 0 0 0 0 0 0 0 0 0 0 0 0 0 0 0 0 0 0 96 0 19 127 231 148 91 21 3 30
0 0 0 0 0 0 0 0 0 0 0 0 0 0 0 0 0 0 0 0 0 0 0 0 0 0 0 0 0 0 0 0 2 0 4 27 9 53 43 195 371 376 245 91 28
0 0 0 0 0 0 0 0 0 0 0 0 0 0 0 0 0 0 0 0 0 0 0 0 0 0 0 0 0 0 0 0 0 0 0 0 41 14 29 2 233 457 499 395 196
0 0 0 0 0 0 0 0 0 0 0 0 0 0 0 0 0 0 0 0 0 0 0 0 0 0 0 0 0 0 0 0 0 0 0 0 112 125 58 68 207 347 381 493 411
0 0 0 0 0 0 0 0 0 0 0 0 0 0 0 0 0 0 0 0 0 0 0 0 0 0 0 0 0 0 0 0 0 0 1 1 31 96 540 420 174 361 736 551 575
0 0 0 0 0 0 0 0 0 0 0 0 0 0 0 0 0 0 0 0 0 0 0 0 0 0 0 0 0 0 0 0 0 0 4 0 35 322 750 406 1231 807 778 888 803
0 0 0 0 0 0 0 0 0 0 0 0 0 0 0 0 0 0 0 0 0 0 0 0 0 0 0 0 0 0 0 0 0 0 9 19 112 247 884 752 520 574 482 637 916
0 0 0 0 0 0 0 0 0 0 0 0 0 0 0 0 0 0 0 0 0 0 0 0 0 0 0 0 0 0 0 0 0 0 0 73 171 158 1092 727 781 837 758 965 735
0 0 0 0 0 0 0 0 0 0 0 0 0 0 0 0 0 0 0 0 0 0 0 0 0 0 0 0 0 0 0 0 0 0 0 1 81 3 221 639 1050 1054 925 989 904
0 0 0 0 0 0 0 0 0 0 0 0 0 0 0 0 0 0 0 0 0 0 0 0 0 0 0 0 0 0 0 0 0 0 0 0 44 60 446 878 803 1359 1069 973 978
0 0 0 0 0 0 0 0 0 0 0 0 0 0 0 0 0 0 0 0 0 0 0 0 0 0 0 0 0 0 0 0 0 0 0 0 0 94 121 498 651 872 1211 928 980
0 0 0 0 0 0 0 0 0 0 0 0 0 0 0 0 0 0 0 0 0 0 0 0 0 0 0 0 0 0 0 0 0 0 0 0 0 0 0 16 92 38 746 1142 1108
0 0 0 0 0 0 0 0 0 0 0 0 0 0 0 0 0 0 0 0 0 0 0 0 0 0 0 0 0 0 0 0 0 0 0 0 0 0 358 634 417 203 870 1301 1177
0 0 0 0 0 0 0 0 0 0 0 0 0 0 0 0 0 0 0 0 0 0 0 0 0 0 0 0 0 0 0 0 0 0 0 0 0 230 327 528 775 700 1078 1303 1100
CIN
0 0 0 0 0 0 0 0 0 0 0 0 0 0 0 0 0 0 0 0 0 -312 -275 -306 -290 -354 -319 -333 -327 -275 -104 -53 -49 -42 -40 -111 -68 -113 -135 -108 -111 -123 -60 0 -197
0 0 0 0 0 0 0 0 0 0 0 0 0 0 0 0 0 0 0 0 -225 -371 -338 -333 -341 -359 -301 -238 -218 -210 0 -90 -145 -110 -85 -133 -60 -100 -97 -97 -113 -131 -92 -126 0
0 0 0 0 0 0 0 0 0 0 0 0 0 0 0 0 0 0 0 0 -451 -424 -365 -392 -378 -320 -163 -224 -132 -247 0 -199 -191 -180 -148 -108 -86 -100 -72 -75 -70 -84 -81 0 -14
0 0 0 0 0 0 0 0 0 0 0 0 0 0 0 0 0 0 0 -184 -439 -461 -412 -317 -310 -157 -103 -74 -167 -155 -239 -284 -253 -212 -173 -118 -102 -108 -104 -93 0 -1 0 0 -9
0 0 0 0 0 0 0 0 0 0 0 0 0 0 0 0 0 -366 -549 -498 -494 -444 -321 -260 -137 -138 -89 -124 -146 -135 -166 -194 -199 -219 -179 -176 -122 -118 -188 0 -62 -148 0 -38 -14
0 0 0 0 0 0 0 0 0 0 0 0 0 0 0 0 0 -478 -458 -466 -414 -362 -338 -308 -191 -197 -164 -157 -124 -174 -152 -146 -187 -193 -182 -168 -164 -151 -245 -205 -207 -186 0 -22 -34
0 0 0 0 0 0 0 0 0 0 0 0 0 0 0 0 0 -488 -453 -451 -451 -389 -329 -367 -305 -202 -172 -156 -225 -252 -154 -173 -210 -167 -151 -212 -180 -180 -292 -229 -233 -184 0 -33 0
0 0 0 0 0 0 0 0 0 0 0 0 0 0 0 0 -514 -495 -468 -440 -416 -388 -346 -316 -284 -210 -178 -165 -200 -220 -235 0 -206 -191 -181 -202 0 -302 -304 -278 -267 -242 -10 -46 -7
0 0 0 0 0 0 0 0 0 0 0 0 0 0 0 -41 -121 -462 -438 -166 -385 -403 -361 -327 -305 -272 -197 -171 -158 -308 0 0 0 -198 -185 -188 -129 -337 -337 -322 -300 -248 -195 -79 -45
0 0 0 0 0 0 0 0 0 0 0 0 0 0 0 0 0 -407 -478 -360 -270 -310 -313 -312 -293 -213 -256 -185 0 0 0 0 0 -273 -221 -175 -194 -327 -377 -350 -294 -281 -240 -170 -123
0 0 0 0 0 0 0 0 0 0 0 0 0 0 0 0 0 0 0 0 -1 -1 0 -83 -1 -1 0 0 0 0 0 0 0 -256 -228 -184 -213 -312 -382 -401 -358 -339 -314 -252 -226
0 0 0 0 0 0 0 0 0 0 0 0 0 0 0 0 0 0 0 0 0 0 0 0 0 0 0 0 0 0 0 0 0 -239 -163 -198 -146 -319 -380 -324 -359 -344 -380 -330 -270
0 0 0 0 0 0 0 0 0 0 0 0 0 0 0 0 0 0 0 0 0 0 0 0 0 0 0 0 0 0 0 0 0 -173 -197 -157 -63 -221 -450 -434 -428 -219 -389 -394 -369
0 0 0 0 0 0 0 0 0 0 0 0 0 0 0 0 0 0 0 0 0 0 0 0 0 0 0 0 0 0 0 0 0 0 0 -207 0 -169 -313 -383 -436 -389 -434 -223 -429
0 0 0 0 0 0 0 0 0 0 0 0 0 0 0 0 0 0 0 0 0 0 0 0 0 0 0 0 0 0 0 0 -17 0 -139 -152 -36 -85 -306 -214 -266 -341 -347 -387 -424
0 0 0 0 0 0 0 0 0 0 0 0 0 0 0 0 0 0 0 0 0 0 0 0 0 0 0 0 0 0 0 0 0 0 0 0 -141 -99 -136 -144 -180 -237 -272 -318 -349
0 0 0 0 0 0 0 0 0 0 0 0 0 0 0 0 0 0 0 0 0 0 0 0 0 0 0 0 0 0 0 0 0 0 0 0 -133 -82 -216 -254 -186 -125 -158 -234 -328
0 0 0 0 0 0 0 0 0 0 0 0 0 0 0 0 0 0 0 0 0 0 0 0 0 0 0 0 0 0 0 0 0 0 -17 -18 -71 -76 -202 -213 -250 -204 -180 -228 -283
0 0 0 0 0 0 0 0 0 0 0 0 0 0 0 0 0 0 0 0 0 0 0 0 0 0 0 0 0 0 0 0 0 0 -9 -6 -112 -140 -157 -153 -128 -142 -118 -138 -190
0 0 0 0 0 0 0 0 0 0 0 0 0 0 0 0 0 0 0 0 0 0 0 0 0 0 0 0 0 0 0 0 0 0 -12 -36 -52 -40 -57 -67 -96 -100 -129 -162 -221
0 0 0 0 0 0 0 0 0 0 0 0 0 0 0 0 0 0 0 0 0 0 0 0 0 0 0 0 0 0 0 0 0 0 -7 -5 -10 -121 -62 -80 -97 -120 -173 -219 -251
0 0 0 0 0 0 0 0 0 0 0 0 0 0 0 0 0 0 0 0 0 0 0 0 0 0 0 0 0 0 0 0 0 0 0 -2 -19 -243 -169 -150 -136 -124 -196 -286 -336
0 0 0 0 0 0 0 0 0 0 0 0 0 0 0 0 0 0 0 0 0 0 0 0 0 0 0 0 0 0 0 0 0 0 0 0 -17 -235 -202 -173 -176 -138 -197 -264 -284
0 0 0 0 0 0 0 0 0 0 0 0 0 0 0 0 0 0 0 0 0 0 0 0 0 0 0 0 0 0 0 0 0 0 0 0 0 -85 -121 -119 -168 -195 -222 -222 -266
0 0 0 0 0 0 0 0 0 0 0 0 0 0 0 0 0 0 0 0 0 0 0 0 0 0 0 0 0 0 0 0 0 0 0 0 0 0 0 -199 -261 -371 -271 -227 -228
0 0 0 0 0 0 0 0 0 0 0 0 0 0 0 0 0 0 0 0 0 0 0 0 0 0 0 0 0 0 0 0 0 0 0 0 0 0 -285 -309 -273 -298 -234 -211 -233
0 0 0 0 0 0 0 0 0 0 0 0 0 0 0 0 0 0 0 0 0 0 0 0 0 0 0 0 0 0 0 0 0 0 0 0 0 -203 -177 -200 -236 -265 -260 -241 -254
Wind_Speed
21 21 20 18 15 10 6 6 21 23 21 22 23 22 21 19 17 15 15 18 21 28 27 27 18 20 20 13 17 18 13 14 15 17 18 13 19 19 18 17 15 11 9 7 14
22 20 18 15 11 8 7 7 11 22 21 21 21 23 21 19 19 18 18 22 23 25 26 24 20 20 11 10 16 16 15 17 17 19 15 18 18 18 17 17 16 15 10 13 19
24 20 17 12 9 9 8 8 9 21 21 20 21 22 21 20 18 17 22 24 26 27 24 21 20 16 10 16 19 20 21 20 16 14 13 16 17 17 16 14 13 13 15 20 19
26 20 13 8 9 10 10 10 11 19 20 20 20 21 21 16 12 15 24 25 24 24 23 19 16 10 11 7 22 23 19 10 11 13 11 14 18 17 16 15 14 16 19 21 21
30 16 4 6 9 11 11 11 11 7 19 19 19 20 17 18 20 14 14 20 21 19 20 16 8 12 10 13 21 22 9 12 15 12 10 12 17 18 18 15 21 23 22 24 26
21 13 5 6 10 11 12 12 12 12 18 18 19 19 17 19 19 11 4 18 10 12 18 14 10 9 10 11 11 10 11 12 13 11 14 14 18 14 17 23 25 25 25 26 30
24 15 12 8 11 12 12 12 12 13 17 18 18 18 18 22 18 9 2 9 14 19 14 16 15 12 10 7 7 7 8 10 16 16 14 21 18 8 22 24 25 25 26 26 28
22 16 8 9 11 12 12 12 12 14 17 19 19 18 20 20 18 11 11 11 11 15 15 14 14 14 12 11 8 7 10 8 14 18 16 16 11 22 23 24 25 26 26 27 28
21 15 8 8 10 11 10 11 15 18 20 20 17 18 18 17 17 14 13 12 9 19 20 20 18 17 15 10 8 7 8 8 10 15 18 17 16 21 22 23 24 25 26 27 29
21 16 9 9 10 9 8 19 22 22 20 19 18 20 18 20 12 3 11 8 16 15 18 18 17 17 17 19 16 15 13 10 9 13 16 17 17 19 21 21 23 24 26 27 28
20 18 11 10 10 11 19 20 20 20 19 19 21 17 16 11 4 14 10 11 14 14 16 17 20 21 21 20 19 18 16 13 11 12 13 14 16 17 19 20 22 23 24 26 28
18 16 14 11 11 13 18 19 18 15 18 18 20 20 21 21 15 12 14 16 17 19 15 16 23 22 22 23 23 20 16 15 14 14 11 13 12 15 17 19 20 23 24 25 26
17 15 13 12 13 17 16 16 15 14 20 20 20 20 19 24 20 21 20 8 18 21 18 5 20 19 23 23 20 21 21 20 19 19 17 17 15 15 17 20 22 22 22 23 24
17 15 14 13 18 18 17 14 13 16 23 23 20 19 18 18 17 20 24 13 14 19 11 19 20 17 21 22 13 22 17 21 21 21 19 17 17 14 15 18 21 23 22 21 21
19 17 15 17 16 16 18 10 17 18 22 21 19 17 19 20 20 22 27 20 23 21 17 18 18 14 14 14 10 17 19 19 18 16 17 16 15 16 14 14 18 20 23 21 19
22 19 17 15 15 11 15 14 14 18 16 19 12 20 22 21 19 22 24 17 17 20 19 19 13 14 14 13 11 12 15 18 16 14 15 16 15 14 16 14 12 20 22 20 18
24 21 11 18 13 15 15 7 17 16 18 19 18 18 20 21 21 22 21 20 19 14 13 14 17 17 15 14 15 12 12 13 3 8 15 15 12 15 16 12 10 13 14 16 13
25 17 7 18 16 15 15 15 15 16 18 17 16 13 16 18 17 16 15 16 17 17 15 14 11 13 15 8 15 14 14 14 15 15 15 14 14 14 15 12 8 9 12 16 13
22 14 11 18 19 18 13 12 13 13 15 14 17 16 14 13 14 12 13 13 15 16 15 15 13 17 18 18 17 13 12 13 14 15 16 17 15 14 13 11 9 10 13 17 20
18 13 15 16 10 11 12 11 12 14 17 14 13 14 11 11 12 11 10 10 12 13 15 12 13 16 19 18 18 12 13 13 16 15 14 19 19 13 10 8 10 13 17 16 17
16 11 15 15 15 13 11 12 16 17 19 14 15 11 12 11 9 9 10 11 11 10 10 13 16 17 18 21 19 16 15 15 15 17 13 10 17 10 8 12 13 15 16 17 18
17 13 16 17 12 14 12 14 17 17 14 15 14 15 14 13 14 14 11 14 14 10 12 16 15 12 19 15 18 16 16 15 14 13 14 15 14 15 22 21 18 17 17 17 18
18 17 17 15 14 14 16 16 16 17 15 15 15 15 15 14 17 17 16 16 15 15 13 13 16 17 11 10 13 15 16 14 13 13 12 21 17 14 13 17 18 18 16 17 18
19 16 17 15 15 15 17 16 16 16 14 17 15 13 13 13 16 15 16 18 16 15 14 14 15 14 11 7 11 13 16 15 15 8 9 13 19 12 11 21 23 21 16 15 17
19 17 17 18 18 19 18 19 19 18 16 17 14 15 15 14 13 14 13 13 14 11 16 15 12 12 11 11 9 11 14 15 23 18 23 25 26 24 21 26 27 27 14 13 16
19 19 20 21 22 21 20 19 20 21 20 19 17 22 17 15 16 16 13 12 11 12 14 15 12 12 15 14 10 10 12 8 18 30 19 26 28 19 20 20 20 15 7 10 15
20 19 20 20 21 22 21 21 20 22 19 18 22 22 16 19 23 20 16 15 14 13 13 14 13 13 5 15 19 7 3 18 9 8 9 10 23 13 13 13 15 12 10 9 12
Wind_Direction
27 23 21 23 28 44 78 108 269 291 291 281 267 259 261 250 250 169 154 161 144 125 121 134 148 136 128 153 117 115 177 159 154 131 118 158 109 99 60 61 39 39 26 82 124
26 27 29 35 49 69 104 136 175 256 284 279 271 254 257 253 250 201 185 130 136 113 111 120 137 124 144 158 106 124 155 140 135 118 136 107 112 101 91 77 63 17 10 106 129
24 29 37 53 75 83 101 112 88 261 270 275 268 252 254 250 255 248 145 143 123 125 128 136 118 123 133 106 93 97 89 110 144 148 153 117 111 111 107 108 99 86 94 122 132
21 31 51 81 91 88 93 104 91 296 279 272 264 253 249 262 271 267 141 136 119 132 119 134 125 145 128 138 85 73 73 204 175 154 167 141 103 99 109 95 96 100 116 126 137
12 43 109 111 94 86 92 95 93 207 279 271 259 251 254 251 239 264 96 115 112 111 146 160 212 134 144 116 86 74 262 170 152 152 174 155 121 96 93 98 81 100 115 127 136
30 285 226 128 93 90 91 92 98 154 259 265 252 246 248 243 246 261 43 110 258 264 210 234 270 172 154 138 145 228 240 214 187 174 144 141 116 141 114 82 86 101 114 128 141
313 287 269 128 104 97 98 98 109 156 196 239 241 242 246 232 250 267 3 266 259 225 268 234 247 255 243 203 240 173 219 238 155 141 137 106 120 200 106 96 93 103 113 123 137
311 293 243 138 118 106 107 110 126 150 169 204 220 230 230 240 245 257 263 274 285 259 250 249 275 249 225 225 211 173 151 250 111 110 133 144 317 93 117 103 102 106 118 124 131
311 292 235 161 137 119 125 133 126 130 145 175 216 219 230 246 246 252 261 286 306 249 247 248 263 269 265 217 215 191 234 240 254 119 95 101 83 92 131 118 112 115 122 128 130
314 292 240 171 152 153 158 90 93 110 149 173 194 189 212 219 255 306 272 307 263 266 261 273 281 306 341 323 276 272 266 236 208 147 120 98 90 99 128 133 127 124 125 132 136
307 299 247 196 166 144 85 91 92 108 144 155 168 199 214 244 303 253 278 283 271 285 285 284 272 249 261 259 251 258 253 241 218 226 189 151 101 114 127 135 139 134 131 140 146
302 289 267 211 173 137 104 94 102 135 133 165 179 190 193 194 235 252 112 257 260 262 292 293 241 253 267 280 272 251 239 239 234 270 227 258 209 97 128 145 140 141 139 143 147
298 279 252 220 152 97 111 111 140 162 122 146 160 174 190 166 196 138 133 200 257 251 268 298 235 278 277 279 320 311 286 289 262 286 293 265 306 315 158 171 158 155 151 149 154
295 275 253 235 85 95 103 134 156 167 108 112 149 169 181 200 209 212 140 95 260 151 108 181 219 209 258 258 15 292 262 284 280 287 297 291 322 294 224 152 161 165 162 157 156
293 276 248 192 90 100 88 232 145 157 73 117 138 171 169 164 142 176 165 205 157 149 124 192 204 189 206 199 83 239 305 330 332 302 292 302 286 313 339 51 145 159 170 164 157
290 272 244 111 166 194 244 220 197 78 4 108 104 105 141 166 171 165 145 218 212 191 202 214 187 185 163 143 104 58 25 347 329 287 294 301 288 320 326 275 348 136 157 156 158
291 266 170 223 14 247 259 63 55 9 91 108 111 103 121 125 140 142 136 147 158 226 256 203 156 160 147 135 58 91 132 181 123 247 271 276 304 307 295 313 15 52 98 140 141
292 281 42 251 255 273 256 71 1 67 74 108 84 76 108 115 109 102 96 132 155 163 179 212 35 252 281 154 22 35 152 208 317 260 257 286 314 311 284 271 291 347 317 51 111
289 304 320 287 261 249 350 3 24 11 213 207 86 83 101 102 105 84 109 107 122 124 110 76 70 322 329 331 334 46 23 12 306 237 253 249 287 314 338 29 13 349 347 349 15
302 302 302 294 345 357 330 347 346 157 263 312 324 28 346 67 97 95 85 31 114 129 300 39 51 334 334 347 335 9 37 347 315 334 339 258 247 311 310 4 344 345 347 331 322
306 310 299 298 301 317 320 326 294 254 250 314 296 357 351 40 44 47 44 356 25 32 23 8 353 337 343 321 306 309 318 329 342 317 337 344 277 14 70 295 317 317 302 308 319
303 302 299 292 304 307 307 313 309 302 322 302 308 283 302 325 305 312 328 303 289 341 345 331 1 27 344 355 291 303 321 329 337 346 336 319 303 311 210 241 266 282 295 308 324
307 293 299 294 292 294 296 298 306 311 315 304 304 307 301 313 303 295 289 293 295 301 327 347 1 11 42 36 8 325 323 338 347 343 351 270 302 325 312 280 291 298 320 327 338
311 300 296 304 300 295 292 298 302 309 315 307 304 314 322 328 319 317 308 298 302 311 327 338 0 16 36 46 11 351 332 338 337 33 17 194 283 328 323 273 277 291 328 335 333
318 307 299 293 291 292 292 293 292 296 309 308 312 307 306 315 332 333 335 328 319 339 318 330 360 7 19 27 28 356 340 334 298 318 217 260 242 256 291 265 272 285 323 327 319
315 309 302 293 291 289 290 291 290 290 293 296 301 292 303 309 314 318 329 332 334 330 330 328 355 354 336 341 357 349 338 192 219 267 211 226 231 312 312 317 317 329 346 335 315
319 315 306 298 292 288 287 288 290 294 294 296 297 293 299 300 296 302 311 325 327 328 329 330 339 342 345 337 327 304 283 215 338 355 335 198 273 323 326 331 326 346 352 353 353